Regional Weather Roundup
Issued by NWS Northern Indiana

Home | Current Version | Previous Version | Graphics & Text | Print | Product List | Glossary On
Versions: 1 2 3 4 5 6 7 8 9 10 11 12 13 14 15 16 17 18 19 20 21 22 23 24 25 26 27 28 29 30 31 32 33 34 35 36 37 38 39 40 41 42 43 44 45 46 47 48 49 50
000
ASUS43 KIWX 021900
RWRIWX

KIWX WEATHER ROUNDUP
NATIONAL WEATHER SERVICE NORTHERN INDIANA
300 PM EDT SUN AUG 02 2015

NOTE: "FAIR" INDICATES FEW OR NO CLOUDS BELOW 12,000 FEET WITH NO
SIGNIFICANT WEATHER AND/OR OBSTRUCTIONS TO VISIBILITY.

* THESE STATIONS ARE NOT UNDER NWS QUALITY CONTROL. THEY ALSO MAY NOT
  REPORT WEATHER SUCH AS PRECIPITATION OR FOG.

INZ001>027-022000-
NORTHERN INDIANA

CITY           SKY/WX    TMP DP  RH WIND       PRES   REMARKS
GARY*          MOSUNNY   91  63  38 SW20G36   29.79F
SOUTH BEND     SUNNY     92  64  39 SW25G32   29.81F
ELKHART*       MOSUNNY   91  63  38 SW17G25   29.82F
GOSHEN         SUNNY     88  68  51 SW17G29   29.82F
MONTICELLO*    SUNNY     88  72  59 SW15G25   29.86F
ANGOLA*        SUNNY     90  84  84 W15       29.84S HX 115
FORT WAYNE     MOSUNNY   89  63  41 SW16G25   29.87F

$$
INZ028>050-022000-
CENTRAL INDIANA

CITY           SKY/WX    TMP DP  RH WIND       PRES   REMARKS
LAFAYETTE      SUNNY     88  71  57 SW14G20   29.87F
KOKOMO*        SUNNY     88  68  51 SW18      29.89F
MUNCIE*        SUNNY     85  65  51 SW13G21   29.91F
INDIANAPOLIS   MOSUNNY   87  66  49 SW14      29.92F

$$
MIZ043>046-050>051-056>058-064>065-071>073-077>080-022000-
SOUTHWEST LOWER MICHIGAN

CITY           SKY/WX    TMP DP  RH WIND       PRES   REMARKS
BATTLE CREEK   SUNNY     91  66  43 W22G30    29.79F
BENTON HARBOR  MOSUNNY   91  65  41 SW22G31   29.77F
COLDWATER*     SUNNY     85  65  49 SW20G25   29.81F
HILLSDALE*     SUNNY     87  64  45 W10G22    29.83F
HOLLAND        PTSUNNY   88  66  48 SW25G33   29.75F
GRAND RAPIDS   PTSUNNY   88  64  44 SW28G36   29.73F
KALAMAZOO      SUNNY     90  64  42 SW16G29   29.78F
STURGIS*       MOSUNNY   86  68  54 SW17G28   29.81F
THREE RIVERS*  FAIR      88  64  44 W12G21    29.81F

$$
OHZ001>008-015>018-024>025-022000-
NORTHWEST OHIO

CITY           SKY/WX    TMP DP  RH WIND       PRES   REMARKS
DEFIANCE       SUNNY     90  61  37 SW15G24   29.84F
FINDLAY        SUNNY     88  62  41 SW15G23   29.87F
TOLEDO EXPRESS SUNNY     87  62  43 SW20G26   29.82F
TOLEDO METCALF SUNNY     91  59  33 SW23G33   29.83F
LIMA           SUNNY     87  64  46 SW15      29.90F

$$
AND FOR LAKE MICHIGAN COASTAL AND OPEN LAKE BUOY OBSERVATIONS

STATION/POSITION TEMP    WIND        PRES    VSBY  WAVE
                 AIR SEA DIR/SP/G                  HT/PER
                 (F)     (DEG/KT/KT) (MB)    (MI)  (FT/S)
CALUMET HARBOR    88     210/ 15/ 23   N/A
MICHIGAN CITY     82     220/ 19/ 22   N/A
BURNS HARBOR      87     230/ 17/ 27 1009.5S
SAINT JOSEPH      80     180/ 13/ 18 1009.5F
4 MI NW BRIDGMAN  78 74  250/ 14/ 16   N/A           2/ 3
MICHIGAN CITY     80 74  250/ 10/ 14   N/A           3/ 3

$$
&&



USA.gov is the U.S. government's official web portal to all federal, state and local government web resources and services.